Location: Izdebno
(52.6670°N, 16.2170°E)
Time: 06:59:58
(UTC+02:00)

Vanguard 2 Rocket - Pass Details

Date: 29 February 2024
Orbit: 555 x 3307 km, 32.9° (Epoch: 24 April)

Event Time Altitude Azimuth Distance (km) Brightness Sun altitude
Rises 14:55:45 0° 236° (WSW) 4,217 11.8 19.9°
Reaches altitude 10° 14:58:41 10° 225° (SW) 3,587 12.4 19.6°
Maximum altitude 15:06:30 28° 171° (S) 3,226 10.3 18.7°
Drops below altitude 10° 15:18:09 10° 121° (ESE) 5,469 10.7 17.4°
Sets 15:24:03 0° 112° (ESE) 6,859 11.1 16.7°
